sat.trackr.live / text

‹ back to catalog

STARLINK-3641

NORAD 51788 · 2022-017W

PAYLOAD ACTIVE UNKNOWN

§ Identity

Operator
Country
US
Launch date
2022-02-25
Launch site
AFWTR
Launch vehicle
Mass (kg)
RCS (m²)

Purposes: comms

External: N2YO · Heavens-Above · Gunter

§ Orbital elements

Epoch: 2026-05-24T21:18:43.449696Z

Period
95.44 min
Inclination
53.2146°
Eccentricity
0.0001337
Mean motion
15.08842356 rev/d
Perigee alt
538.8 km
Apogee alt
540.7 km
Semi-major
6,917.9 km
B*
7.4424e-5
RAAN
7.0542°
Arg perigee
93.7304°
Mean anomaly
266.3841°
Rev number
23,542

§ Raw data

STARLINK-36411 51788U 22017W   26144.88800289  .00000897  00000+0  74424-4 0  99992 51788  53.2146   7.0542 0001337  93.7304 266.3841 15.08842356235428

JSON: /api/v1/satellites/51788 · /tle

For live sub-satellite position, see the globe view (requires WebGL).

§ Visibility from observer

Set your observer location to see the next 7 days of passes ≥ 10°. The values pass through the URL so the page stays shareable.

No JS? Fill the form by hand. The geolocation button needs JavaScript.